Погода в Варне

Россия / Челябинская область     53°22′56″N   60°58′31″E
темп.,
°C
ветер,
м/с
пор.,
м/с
влажн.,
%
обл.,
%
осадки,
мм/ч
давл.,
гПа
погр.,
м
20 апреля, вт
вт2023:00−2всв38460 0.0 1033303
02:00−2всв23480 0.0 1033108
05:00−3св22460 0.0 103535
08:00−1ссв34360 0.0 1035476
11:00+3св45310 0.0 10341453
14:00+5ссв332711 0.0 10331607
17:00+6ссв33261 0.0 10321522
20:00+4ссв11350 0.0 103210
21 апреля, ср
ср2123:00+3юз12390 0.0 103210
02:00+1з33460 0.0 103228
05:000зсз33490 0.0 103327
08:00+4зсз34420 0.0 1033206
11:00+8сз23310 0.0 10331003
14:00+11ссз11280 0.0 10321342
17:00+12ю112741 0.0 10321450
20:00+10ю223465 0.0 103312
22 апреля, чт
чт2223:00+7ю33438 0.0 103433
02:00+5юз22525 0.0 103424
05:00+4юз335666 0.0 103636
08:00+6ююз3551100 0.0 1036197
11:00+11ююз5734100 0.0 10361112
14:00+12ю6731100 0.0 10361378
17:00+12ю5733100 0.0 10351408
20:00+9ю3545100 0.0 103581
23 апреля, пт
пт2323:00+7ююз3855100 0.0 1035140
02:00+6ююв375998 0.0 1034130
05:00+6ю3963100 0.0 1034184
08:00+7зюз2667100 0.0 1034363
11:00+10ю4753100 0.0 1033884
14:00+13ю564899 0.0 10321400
17:00+14ю3740100 0.0 10301971
20:00+12юв3650100 0.0 1029136
24 апреля, сб
сб2423:00+11ю3656100 0.0 1029161
02:00+9ююв2360100 0.1 102892
05:00+8вюв3758100 0.1 1026177
08:00+9ююв51056100 0.0 1025596
11:00+8ююв7972100 0.1 10241093
14:00+11ююв8952100 0.1 10221438
17:00+9ююв81065100 0.1 10221363
20:00+8юв6955100 0.1 10201136